Total_Precipitation_Accumulation
0.16 0.23 0.30 0.32 0.27 0.21 0.18 0.21 0.34 0.33 0.38 0.48 0.59 0.64 0.79 0.85 0.77 0.73 0.68 0.66 0.67 0.74 0.78 0.83 0.88 0.90 0.98 0.94 1.09 1.08 1.16 1.26 1.37 1.34 1.33 1.31 1.27 1.24 1.28 1.36 1.31 1.45 1.60 1.69
0.15 0.18 0.22 0.26 0.26 0.18 0.14 0.12 0.15 0.28 0.49 0.53 0.56 0.61 0.73 0.75 0.73 0.71 0.78 0.83 0.84 0.85 0.91 0.84 0.78 0.74 0.68 0.72 0.84 0.93 1.05 1.03 1.12 1.22 1.13 1.10 1.12 1.09 1.11 1.21 1.30 1.44 1.48 1.53
0.25 0.21 0.27 0.32 0.26 0.19 0.14 0.13 0.14 0.32 0.59 0.59 0.60 0.63 0.75 0.82 0.82 0.73 0.72 0.76 0.83 0.85 0.84 0.71 0.65 0.65 0.65 0.68 0.71 0.74 0.84 0.98 1.10 1.18 1.14 1.07 1.12 1.22 1.19 1.31 1.36 1.36 1.32 1.35
0.37 0.44 0.58 0.39 0.25 0.21 0.22 0.21 0.22 0.28 0.38 0.46 0.60 0.62 0.59 0.66 0.78 0.81 0.81 0.86 0.85 0.79 0.74 0.70 0.67 0.67 0.67 0.66 0.67 0.70 0.71 0.80 0.93 1.04 1.04 1.03 1.04 1.11 1.21 1.35 1.42 1.38 1.26 1.25
0.49 0.59 0.51 0.43 0.37 0.34 0.38 0.38 0.35 0.43 0.42 0.48 0.54 0.58 0.66 0.57 0.61 0.64 0.78 0.81 0.83 0.80 0.84 0.85 0.81 0.84 0.85 0.80 0.80 0.84 0.86 0.91 0.88 0.96 1.07 1.14 1.18 1.21 1.31 1.39 1.43 1.47 1.36 1.30
0.65 0.78 0.79 0.67 0.56 0.49 0.51 0.83 0.63 0.59 0.60 0.67 0.70 0.81 0.93 0.70 0.61 0.69 0.77 0.77 0.84 0.76 0.72 0.82 0.84 0.98 1.04 1.04 1.02 1.07 1.13 1.20 1.20 1.26 1.32 1.33 1.46 1.58 1.63 1.65 1.59 1.62 1.55 1.49
0.83 0.95 0.97 0.77 0.65 0.60 0.99 1.18 0.79 0.72 0.76 0.74 0.77 0.88 0.88 0.81 0.80 0.84 0.71 0.68 0.74 0.82 0.77 0.79 0.89 1.04 1.24 1.28 1.22 1.27 1.31 1.41 1.51 1.62 1.77 1.88 2.01 1.96 1.93 1.96 1.98 1.84 1.71 1.68
1.18 1.34 1.27 0.82 0.77 1.08 1.29 0.97 1.00 0.91 0.83 0.80 0.74 0.80 0.86 0.85 0.82 0.72 0.70 0.70 0.74 0.86 0.84 0.85 0.98 1.13 1.28 1.34 1.38 1.50 1.58 1.71 1.84 2.03 2.11 2.20 2.52 2.55 2.59 2.55 2.29 2.07 2.01 1.90
1.28 1.39 1.13 0.98 1.13 1.21 1.17 1.14 1.18 1.21 1.01 0.89 0.78 0.78 0.82 0.75 0.67 0.62 0.64 0.66 0.71 0.86 0.96 0.97 1.04 1.25 1.47 1.50 1.55 1.66 1.79 1.97 2.11 2.20 2.34 2.48 2.62 2.62 2.62 2.55 2.30 2.12 2.10 2.03
1.37 1.49 1.29 1.20 1.20 1.24 1.23 1.17 1.16 1.22 1.33 1.30 1.01 0.86 0.88 0.86 0.75 0.71 0.77 0.74 0.76 0.87 1.01 1.17 1.25 1.41 1.64 1.67 1.76 1.84 1.91 2.01 2.11 2.21 2.33 2.50 2.66 2.60 2.50 2.39 2.29 2.21 2.19 2.18
1.70 1.68 1.56 1.44 1.47 1.56 1.46 1.34 1.34 1.34 1.39 1.40 1.08 0.88 0.83 0.90 0.87 0.86 0.94 0.96 0.92 0.97 1.09 1.30 1.47 1.60 1.68 1.73 1.87 1.99 1.99 2.05 2.14 2.18 2.21 2.32 2.40 2.49 2.39 2.31 2.27 2.26 2.28 2.32
1.87 1.69 1.82 1.70 1.42 1.52 1.65 1.50 1.50 1.43 1.35 1.16 1.04 0.98 0.94 0.91 0.90 0.90 1.01 1.05 1.06 1.08 1.15 1.31 1.48 1.68 1.79 1.89 2.00 2.10 2.09 1.99 2.02 2.10 2.16 2.19 2.17 2.05 1.97 1.92 1.87 1.81 1.88 1.92
1.56 1.43 1.55 1.57 1.48 1.53 1.73 1.63 1.39 1.29 1.27 1.24 1.14 0.99 0.91 0.85 0.82 0.86 0.93 0.97 1.03 1.10 1.15 1.25 1.38 1.59 1.80 2.01 2.19 2.29 2.28 2.23 2.20 2.27 2.34 2.33 2.30 2.21 2.10 1.94 1.76 1.61 1.52 1.49
1.48 1.49 1.55 1.59 1.66 1.59 1.65 1.55 1.32 1.18 1.15 1.21 1.20 1.06 0.94 0.87 0.84 0.83 0.97 1.01 0.99 1.05 1.16 1.22 1.30 1.48 1.67 1.85 2.06 2.21 2.24 2.32 2.31 2.28 2.32 2.29 2.26 2.25 2.21 2.08 1.95 1.75 1.50 1.36
1.58 1.65 1.72 1.72 1.70 1.65 1.63 1.49 1.45 1.28 1.13 1.12 1.19 1.15 1.04 0.94 0.92 0.89 0.89 0.86 0.88 0.95 1.05 1.20 1.31 1.38 1.50 1.58 1.67 1.80 1.92 2.04 2.11 2.08 2.06 2.10 2.09 2.05 2.04 2.00 1.89 1.73 1.50 1.39
1.56 1.67 1.69 1.69 1.72 1.67 1.61 1.54 1.45 1.30 1.12 1.11 1.17 1.08 1.03 0.98 0.93 0.87 0.82 0.84 0.92 0.97 1.03 1.22 1.29 1.37 1.55 1.65 1.70 1.79 1.88 1.97 2.01 1.94 1.81 1.76 1.75 1.77 1.73 1.74 1.72 1.61 1.47 1.34
1.59 1.68 1.69 1.69 1.59 1.55 1.61 1.62 1.47 1.31 1.18 1.12 1.14 1.06 0.95 0.84 0.81 0.78 0.79 0.80 0.83 0.90 1.01 1.16 1.22 1.23 1.41 1.67 1.81 1.81 1.76 1.72 1.76 1.75 1.67 1.57 1.56 1.61 1.63 1.65 1.60 1.52 1.40 1.27
1.54 1.48 1.44 1.50 1.48 1.48 1.46 1.44 1.47 1.39 1.24 1.13 1.07 1.03 0.96 0.86 0.80 0.78 0.76 0.77 0.80 0.81 0.84 0.93 1.04 1.12 1.22 1.41 1.60 1.68 1.68 1.60 1.51 1.48 1.47 1.39 1.32 1.36 1.41 1.43 1.34 1.26 1.17 1.05
1.31 1.25 1.22 1.24 1.32 1.37 1.35 1.30 1.33 1.34 1.23 1.12 1.11 1.11 1.03 0.93 0.84 0.79 0.75 0.80 0.91 0.97 0.89 0.89 1.04 1.06 1.14 1.27 1.40 1.41 1.48 1.51 1.43 1.27 1.24 1.31 1.23 1.20 1.14 1.11 1.05 1.00 0.94 0.89
1.22 1.14 1.16 1.28 1.35 1.44 1.47 1.36 1.24 1.25 1.27 1.19 1.11 1.11 1.05 1.00 0.94 0.90 0.87 0.92 1.02 1.11 1.07 1.00 0.93 0.90 1.01 1.22 1.31 1.25 1.25 1.31 1.27 1.18 1.15 1.17 1.13 1.09 0.98 0.95 0.93 0.91 0.90 0.88
1.25 1.22 1.24 1.25 1.28 1.36 1.41 1.28 1.14 1.13 1.10 1.10 1.05 1.01 1.02 0.98 0.95 0.98 1.05 1.08 1.00 1.00 0.98 0.98 0.88 0.85 0.87 1.07 1.14 1.13 1.11 1.11 1.13 1.09 1.08 1.09 1.08 1.03 0.96 0.96 0.92 0.88 0.82 0.79
1.21 1.21 1.16 1.12 1.10 1.14 1.15 1.09 0.94 0.88 0.85 0.87 0.91 0.90 0.95 0.93 0.89 0.92 0.92 0.99 1.02 1.05 0.93 0.89 0.84 0.82 0.80 0.88 0.93 1.04 1.09 1.01 0.96 0.92 0.92 0.92 0.96 0.96 0.88 0.84 0.80 0.71 0.66 0.65
1.04 0.98 0.97 0.94 0.91 0.92 0.90 0.86 0.80 0.78 0.77 0.80 0.85 0.94 1.03 0.98 0.93 1.02 0.96 0.85 0.89 0.87 0.81 0.80 0.78 0.75 0.68 0.69 0.80 0.89 0.98 0.97 0.95 0.86 0.81 0.79 0.77 0.74 0.71 0.66 0.60 0.58 0.60 0.58
0.84 0.85 0.86 0.78 0.75 0.81 0.87 0.85 0.77 0.74 0.70 0.71 0.73 0.86 1.03 1.12 1.04 0.97 0.90 0.86 0.78 0.68 0.61 0.62 0.56 0.54 0.55 0.56 0.66 0.75 0.84 0.87 0.87 0.80 0.73 0.69 0.63 0.62 0.65 0.64 0.57 0.53 0.54 0.52
0.76 0.73 0.79 0.81 0.79 0.86 0.89 0.83 0.76 0.71 0.71 0.72 0.70 0.79 0.96 1.10 1.15 1.03 0.85 0.73 0.65 0.57 0.54 0.52 0.48 0.49 0.51 0.54 0.63 0.73 0.81 0.82 0.82 0.76 0.68 0.63 0.57 0.56 0.59 0.59 0.54 0.49 0.46 0.44
0.84 0.82 0.88 0.88 0.86 0.90 0.90 0.87 0.89 0.88 0.90 0.93 0.91 0.91 0.96 0.96 0.97 0.93 0.82 0.68 0.59 0.58 0.56 0.54 0.50 0.48 0.51 0.60 0.65 0.71 0.78 0.79 0.77 0.71 0.61 0.57 0.52 0.53 0.59 0.57 0.52 0.50 0.45 0.40
0.93 0.91 0.92 0.97 1.00 0.99 0.94 0.94 1.01 1.06 1.12 1.20 1.23 1.12 1.07 1.05 0.98 0.85 0.73 0.64 0.56 0.55 0.55 0.53 0.50 0.47 0.52 0.61 0.67 0.71 0.72 0.73 0.66 0.61 0.60 0.57 0.54 0.56 0.59 0.56 0.52 0.46 0.40 0.37